Location: Austin
(30.3000°N, 97.7500°W)
Time: 04:07:07
(UTC-06:00)

Cosmos 1869 - Pass Details

Date: 20 November 2023
Orbit: 499 x 541 km, 82.5° (Epoch: 04 December)

Event Time Altitude Azimuth Distance (km) Brightness Sun altitude
Rises 18:18:30 0° 193° (SSW) 2,659 7.2 -10.2°
Reaches altitude 10° 18:20:40 10° 197° (SSW) 1,767 6.4 -10.7°
Maximum altitude 18:24:30 59° 277° (W) 610 3.9 -11.5°
Drops below altitude 10° 18:28:18 10° 357° (N) 1,752 5.8 -12.2°
Sets 18:30:27 0° 2° (N) 2,636 6.6 -12.7°
